Date String (YYYY-MM-DD hh:mm:ss) UTC,Instrument flags,absolute air pressure of the measurement (hPa),sample flow rate (lpm),inlet stack bypass flow (lpm),air temperature of the measurement (°C),ambient temperature measured by the external sensor (°C),aerosol sample conditioner tube jacket temperature (°C),OPC LED temperature (°C),internal box temperature (°C),relative humidity of the measurement (%),span deviation,mass concentration of particles derived from Lorenz-Mie calculation of OPC scattering (μg/m³),mass concentration of particles derived from Lorenz-Mie calculation of OPC scattering (μg/m³),mass concentration of particles derived from Lorenz-Mie calculation of OPC scattering (μg/m³)
DateTimeUTC,F1_M11,P_M11,Q1_M11,Q2_M11,T1_M11,T2_M11,T3_M11,T4_M11,T5_M11,U1_M11,ZSPAN_M11,X2_M11,X0_M11,X1_M11
2023-09-16 18:00:00,SystemResetWarning,0837.7,4.99,000.00,028.4,025.3,000.0,036.7,029.5,17.9,0000.0,0004.37,0007.75,0003.90
2023-09-16 18:01:00,SystemResetWarning,0837.6,5.01,000.00,028.3,024.2,000.0,036.6,029.3,17.7,0000.0,0004.36,0007.82,0003.89
2023-09-16 18:02:00,SystemResetWarning,0837.6,5.01,000.00,028.2,024.4,000.0,036.6,029.3,18.0,0000.0,0004.37,0008.19,0003.88
2023-09-16 18:03:00,SystemResetWarning,0837.6,5.00,000.00,028.1,024.6,000.0,036.6,029.3,18.4,0000.0,0004.38,0008.26,0003.89
2023-09-16 18:04:00,SystemResetWarning,0837.7,5.00,000.00,028.1,025.0,000.0,036.6,029.3,18.5,0000.0,0004.36,0008.26,0003.88
2023-09-16 18:05:00,SystemResetWarning,0837.7,5.00,000.00,028.1,025.4,000.0,036.5,029.4,18.8,0000.0,0004.34,0008.25,0003.85
2023-09-16 18:06:00,SystemResetWarning,0837.6,5.00,000.00,028.1,025.7,000.0,036.5,029.5,18.2,0000.0,0004.31,0007.93,0003.85
2023-09-16 18:07:00,SystemResetWarning,0837.6,4.99,000.00,028.1,026.0,000.0,036.5,029.5,17.9,0000.0,0004.28,0007.84,0003.84
2023-09-16 18:08:00,SystemResetWarning,0837.6,4.99,000.00,028.1,026.2,000.0,036.5,029.6,18.1,0000.0,0004.29,0008.24,0003.84
2023-09-16 18:09:00,SystemResetWarning,0837.6,5.00,000.00,028.1,026.4,000.0,036.5,029.6,18.0,0000.0,0004.25,0008.53,0003.83
2023-09-16 18:10:00,SystemResetWarning,0837.6,5.00,000.00,028.1,026.6,000.0,036.5,029.7,18.9,0000.0,0004.25,0008.62,0003.83
2023-09-16 18:11:00,SystemResetWarning,0837.6,5.00,000.00,028.1,026.7,000.0,036.5,029.8,18.3,0000.0,0004.24,0008.54,0003.83
2023-09-16 18:12:00,SystemResetWarning,0837.5,5.00,000.00,028.2,026.8,000.0,036.5,029.8,19.4,0000.0,0004.24,0008.39,0003.83
2023-09-16 18:13:00,SystemResetWarning,0837.6,5.00,000.00,028.2,026.9,000.0,036.5,029.8,19.4,0000.0,0004.24,0008.07,0003.82
2023-09-16 18:14:00,SystemResetWarning,0837.6,5.01,000.00,028.2,027.0,000.0,036.5,029.9,20.0,0000.0,0004.20,0008.00,0003.80
2023-09-16 18:15:00,SystemResetWarning,0837.5,5.00,000.00,028.3,027.1,000.0,036.5,029.9,19.2,0000.0,0004.19,0007.96,0003.79
2023-09-16 18:16:00,SystemResetWarning,0837.5,5.00,000.00,028.3,027.2,000.0,036.5,030.0,19.5,0000.0,0004.20,0007.85,0003.80
2023-09-16 18:17:00,SystemResetWarning,0837.5,4.99,000.00,028.3,027.2,000.0,036.6,030.0,18.8,0000.0,0004.19,0007.84,0003.80
2023-09-16 18:18:00,SystemResetWarning,0837.5,4.99,000.00,028.4,027.3,000.0,036.6,030.0,18.5,0000.0,0004.18,0007.92,0003.79
2023-09-16 18:19:00,SystemResetWarning,0837.4,5.00,000.00,028.4,027.3,000.0,036.6,030.1,17.4,0000.0,0004.17,0007.75,0003.78
2023-09-16 18:20:00,SystemResetWarning,0837.4,5.00,000.00,028.4,027.4,000.0,036.6,030.1,16.8,0000.0,0004.16,0007.37,0003.77
2023-09-16 18:21:00,SystemResetWarning,0837.4,5.00,000.00,028.5,027.3,000.0,036.6,030.1,16.9,0000.0,0004.15,0007.25,0003.78
2023-09-16 18:22:00,SystemResetWarning,0837.3,5.00,000.00,028.4,026.0,000.0,036.6,029.7,18.5,0000.0,0004.17,0007.36,0003.76
2023-09-16 18:23:00,SystemResetWarning,0837.2,5.00,000.00,028.3,024.5,000.0,036.5,029.3,19.6,0000.5,0004.15,0007.31,0003.76
2023-09-16 18:24:00,SystemResetWarning,0837.2,5.00,000.00,028.2,024.3,000.0,036.5,029.3,19.5,0001.1,0004.14,0007.11,0003.76
2023-09-16 18:25:00,SystemResetWarning,0837.2,5.01,000.00,028.1,024.6,000.0,036.5,029.2,18.6,0000.0,0004.16,0007.06,0003.77
2023-09-16 18:26:00,SystemResetWarning,0837.2,5.00,000.00,028.0,024.9,000.0,036.5,029.2,18.8,0000.0,0004.17,0007.08,0003.78
2023-09-16 18:27:00,SystemResetWarning,0837.2,4.99,000.00,028.0,025.3,000.0,036.4,029.3,18.8,0000.0,0004.20,0007.19,0003.77
2023-09-16 18:28:00,SystemResetWarning,0837.2,4.99,000.00,028.0,025.6,000.0,036.4,029.4,18.7,0000.0,0004.22,0007.28,0003.77
2023-09-16 18:29:00,SystemResetWarning,0837.3,5.00,000.00,028.0,025.9,000.0,036.4,029.4,18.4,0000.0,0004.26,0007.33,0003.77
2023-09-16 18:30:00,SystemResetWarning,0837.3,5.01,000.00,028.0,026.1,000.0,036.4,029.5,18.5,0000.0,0004.26,0007.01,0003.78
2023-09-16 18:31:00,SystemResetWarning,0837.2,5.01,000.00,028.0,026.3,000.0,036.4,029.6,18.9,0000.0,0004.28,0007.02,0003.78
2023-09-16 18:32:00,SystemResetWarning,0837.2,4.99,000.00,028.1,026.5,000.0,036.4,029.7,18.5,0000.0,0004.30,0007.12,0003.77
2023-09-16 18:33:00,SystemResetWarning,0837.2,5.00,000.00,028.1,026.7,000.0,036.4,029.7,18.5,0000.0,0004.28,0007.14,0003.77
2023-09-16 18:34:00,SystemResetWarning,0837.2,5.00,000.00,028.1,026.8,000.0,036.4,029.7,18.3,0000.0,0004.28,0007.16,0003.77
2023-09-16 18:35:00,SystemResetWarning,0837.2,5.01,000.00,028.2,026.9,000.0,036.5,029.7,18.4,0000.0,0004.28,0007.17,0003.77
2023-09-16 18:36:00,SystemResetWarning,0837.2,5.01,000.00,028.2,027.0,000.0,036.5,029.8,18.8,0000.0,0004.26,0007.19,0003.76
2023-09-16 18:37:00,SystemResetWarning,0837.2,5.00,000.00,028.2,027.1,000.0,036.5,029.9,19.3,0000.0,0004.27,0007.30,0003.76
2023-09-16 18:38:00,SystemResetWarning,0837.2,5.00,000.00,028.3,027.2,000.0,036.5,029.9,19.9,0000.0,0004.24,0007.25,0003.77
2023-09-16 18:39:00,SystemResetWarning,0837.2,5.00,000.00,028.3,027.3,000.0,036.5,030.0,19.4,0000.0,0004.24,0007.20,0003.77
2023-09-16 18:40:00,SystemResetWarning,0837.2,5.00,000.00,028.3,027.3,000.0,036.5,030.0,19.3,0000.0,0004.21,0006.97,0003.76
2023-09-16 18:41:00,SystemResetWarning,0837.2,4.98,000.00,028.3,026.3,000.0,036.5,029.8,19.2,0000.0,0004.19,0006.91,0003.76
2023-09-16 18:42:00,SystemResetWarning,0837.2,5.01,000.00,028.2,025.1,000.0,036.5,029.5,19.4,0000.0,0004.17,0006.83,0003.75
2023-09-16 18:43:00,SystemResetWarning,0837.2,5.01,000.00,028.2,025.1,000.0,036.4,029.5,20.1,0000.0,0004.14,0006.83,0003.74
2023-09-16 18:44:00,SystemResetWarning,0837.2,4.99,000.00,028.1,025.3,000.0,036.5,029.4,20.0,0000.0,0004.13,0006.95,0003.73
2023-09-16 18:45:00,SystemResetWarning,0837.2,5.00,000.00,028.1,025.6,000.0,036.5,029.4,19.4,0000.0,0004.15,0006.95,0003.71
2023-09-16 18:46:00,SystemResetWarning,0837.2,5.00,000.00,028.1,025.9,000.0,036.5,029.5,19.3,0000.0,0004.15,0007.05,0003.71
2023-09-16 18:47:00,SystemResetWarning,0837.2,5.00,000.00,028.1,026.1,000.0,036.5,029.5,19.6,0000.0,0004.15,0006.97,0003.71
2023-09-16 18:48:00,SystemResetWarning,0837.2,5.00,000.00,028.1,026.4,000.0,036.5,029.6,20.2,0000.0,0004.11,0006.75,0003.70
2023-09-16 18:49:00,SystemResetWarning,0837.2,5.00,000.00,028.1,026.6,000.0,036.5,029.7,19.6,0000.0,0004.11,0006.88,0003.69
2023-09-16 18:50:00,SystemResetWarning,0837.2,5.01,000.00,028.2,026.7,000.0,036.5,029.8,19.4,0000.0,0004.12,0006.95,0003.69
2023-09-16 18:51:00,SystemResetWarning,0837.2,5.01,000.00,028.2,026.9,000.0,036.5,029.8,19.7,0000.0,0004.12,0006.93,0003.70
2023-09-16 18:52:00,SystemResetWarning,0837.2,4.99,000.00,028.2,027.0,000.0,036.5,029.9,19.5,0000.0,0004.13,0006.94,0003.71
2023-09-16 18:53:00,SystemResetWarning,0837.2,5.00,000.00,028.3,027.1,000.0,036.5,029.9,19.8,0000.0,0004.13,0006.96,0003.71
2023-09-16 18:54:00,SystemResetWarning,0837.2,5.00,000.00,028.3,027.1,000.0,036.6,029.9,19.5,0000.0,0004.15,0007.02,0003.72
2023-09-16 18:55:00,SystemResetWarning,0837.1,4.99,000.00,028.3,025.9,000.0,036.5,029.6,19.1,0000.0,0004.16,0007.55,0003.71
2023-09-16 18:56:00,SystemResetWarning,0837.0,5.01,000.00,028.2,025.0,000.0,036.4,029.4,19.7,0000.0,0004.10,0007.44,0003.71
2023-09-16 18:57:00,SystemResetWarning,0837.0,5.01,000.00,028.1,025.0,000.0,036.4,029.4,20.6,0000.0,0004.07,0007.36,0003.70
2023-09-16 18:58:00,SystemResetWarning,0837.0,4.99,000.00,028.0,025.3,000.0,036.4,029.4,19.6,0000.0,0004.09,0007.53,0003.70
2023-09-16 18:59:00,SystemResetWarning,0836.9,4.99,000.00,028.0,025.6,000.0,036.4,029.4,19.7,0000.0,0004.15,0007.94,0003.70
